Year,Month,Day,Hour,Minute,Value (Times are PST for temperature in C)
2007,07,16,00,00,15.30
2007,07,16,00,01,15.30
2007,07,16,00,02,15.30
2007,07,16,00,03,15.30
2007,07,16,00,04,15.30
2007,07,16,00,05,15.30
2007,07,16,00,06,15.30
2007,07,16,00,07,15.20
2007,07,16,00,08,15.20
2007,07,16,00,09,15.20
2007,07,16,00,10,15.20
2007,07,16,00,11,15.20
2007,07,16,00,12,15.20
2007,07,16,00,13,15.20
2007,07,16,00,14,15.10
2007,07,16,00,15,15.10
2007,07,16,00,16,15.10
2007,07,16,00,17,15.10
2007,07,16,00,18,15.10
2007,07,16,00,19,15.10
2007,07,16,00,20,15.10
2007,07,16,00,21,15.10
2007,07,16,00,22,15.10
2007,07,16,00,23,15.10
2007,07,16,00,24,15.10
2007,07,16,00,25,15.00
2007,07,16,00,26,15.00
2007,07,16,00,27,15.00
2007,07,16,00,28,15.00
2007,07,16,00,29,15.00
2007,07,16,00,30,15.00
2007,07,16,00,31,15.00
2007,07,16,00,32,15.00
2007,07,16,00,33,15.00
2007,07,16,00,34,14.90
2007,07,16,00,35,14.90
2007,07,16,00,36,14.90
2007,07,16,00,37,14.90
2007,07,16,00,38,14.90
2007,07,16,00,39,14.80
2007,07,16,00,40,14.80
2007,07,16,00,41,14.80
2007,07,16,00,42,14.80
2007,07,16,00,43,14.80
2007,07,16,00,44,14.80
2007,07,16,00,45,14.80
2007,07,16,00,46,14.80
2007,07,16,00,47,14.80
2007,07,16,00,48,14.80
2007,07,16,00,49,14.80
2007,07,16,00,50,14.80
2007,07,16,00,51,14.80
2007,07,16,00,52,14.80
2007,07,16,00,53,14.80
2007,07,16,00,54,14.80
2007,07,16,00,55,14.80
2007,07,16,00,56,14.80
2007,07,16,00,57,14.80
2007,07,16,00,58,14.90
2007,07,16,00,59,14.90
2007,07,16,01,00,14.90
2007,07,16,01,01,14.90
2007,07,16,01,02,15.00
2007,07,16,01,03,15.00
2007,07,16,01,04,15.00
2007,07,16,01,05,15.00
2007,07,16,01,06,15.00
2007,07,16,01,07,14.90
2007,07,16,01,08,14.90
2007,07,16,01,09,14.90
2007,07,16,01,10,14.90
2007,07,16,01,11,14.80
2007,07,16,01,12,14.80
2007,07,16,01,13,14.80
2007,07,16,01,14,14.80
2007,07,16,01,15,14.80
2007,07,16,01,16,14.80
2007,07,16,01,17,14.80
2007,07,16,01,18,14.80
2007,07,16,01,19,14.80
2007,07,16,01,20,14.80
2007,07,16,01,21,14.80
2007,07,16,01,22,14.80
2007,07,16,01,23,14.80
2007,07,16,01,24,14.80
2007,07,16,01,25,14.80
2007,07,16,01,26,14.80
2007,07,16,01,27,14.80
2007,07,16,01,28,14.80
2007,07,16,01,29,14.80
2007,07,16,01,30,14.80
2007,07,16,01,31,14.80
2007,07,16,01,32,14.80
2007,07,16,01,33,14.80
2007,07,16,01,34,14.80
2007,07,16,01,35,14.80
2007,07,16,01,36,14.80
2007,07,16,01,37,14.80
2007,07,16,01,38,14.80
2007,07,16,01,39,14.80
2007,07,16,01,40,14.70
2007,07,16,01,41,14.70
2007,07,16,01,42,14.70
2007,07,16,01,43,14.70
2007,07,16,01,44,14.70
2007,07,16,01,45,14.70
2007,07,16,01,46,14.70
2007,07,16,01,47,14.70
2007,07,16,01,48,14.70
2007,07,16,01,49,14.70
2007,07,16,01,50,14.70
2007,07,16,01,51,14.70
2007,07,16,01,52,14.70
2007,07,16,01,53,14.70
2007,07,16,01,54,14.60
2007,07,16,01,55,14.60
2007,07,16,01,56,14.60
2007,07,16,01,57,14.60
2007,07,16,01,58,14.60
2007,07,16,01,59,14.60
2007,07,16,02,00,14.60
2007,07,16,02,01,14.60
2007,07,16,02,02,14.60
2007,07,16,02,03,14.60
2007,07,16,02,04,14.60
2007,07,16,02,05,14.50
2007,07,16,02,06,14.50
2007,07,16,02,07,14.50
2007,07,16,02,08,14.50
2007,07,16,02,09,14.50
2007,07,16,02,10,14.50
2007,07,16,02,11,14.50
2007,07,16,02,12,14.50
2007,07,16,02,13,14.50
2007,07,16,02,14,14.50
2007,07,16,02,15,14.40
2007,07,16,02,16,14.40
2007,07,16,02,17,14.40
2007,07,16,02,18,14.40
2007,07,16,02,19,14.30
2007,07,16,02,20,14.30
2007,07,16,02,21,14.30
2007,07,16,02,22,14.30
2007,07,16,02,23,14.20
2007,07,16,02,24,14.20
2007,07,16,02,25,14.20
2007,07,16,02,26,14.20
2007,07,16,02,27,14.20
2007,07,16,02,28,14.20
2007,07,16,02,29,14.20
2007,07,16,02,30,14.20
2007,07,16,02,31,14.20
2007,07,16,02,32,14.20
2007,07,16,02,33,14.20
2007,07,16,02,34,14.20
2007,07,16,02,35,14.20
2007,07,16,02,36,14.20
2007,07,16,02,37,14.20
2007,07,16,02,38,14.20
2007,07,16,02,39,14.20
2007,07,16,02,40,14.20
2007,07,16,02,41,14.20
2007,07,16,02,42,14.10
2007,07,16,02,43,14.10
2007,07,16,02,44,14.10
2007,07,16,02,45,14.10
2007,07,16,02,46,14.00
2007,07,16,02,47,14.00
2007,07,16,02,48,14.00
2007,07,16,02,49,14.00
2007,07,16,02,50,14.00
2007,07,16,02,51,14.00
2007,07,16,02,52,14.00
2007,07,16,02,53,14.00
2007,07,16,02,54,14.00
2007,07,16,02,55,14.00
2007,07,16,02,56,14.00
2007,07,16,02,57,14.00
2007,07,16,02,58,14.00
2007,07,16,02,59,14.00
2007,07,16,03,00,14.00
2007,07,16,03,01,14.00
2007,07,16,03,02,14.00
2007,07,16,03,03,14.00
2007,07,16,03,04,14.00
2007,07,16,03,05,14.00
2007,07,16,03,06,14.00
2007,07,16,03,07,14.00
2007,07,16,03,08,14.00
2007,07,16,03,09,14.00
2007,07,16,03,10,14.00
2007,07,16,03,11,14.00
2007,07,16,03,12,14.00
2007,07,16,03,13,14.00
2007,07,16,03,14,14.00
2007,07,16,03,15,14.00
2007,07,16,03,16,14.00
2007,07,16,03,17,14.00
2007,07,16,03,18,14.00
2007,07,16,03,19,14.00
2007,07,16,03,20,14.00
2007,07,16,03,21,14.00
2007,07,16,03,22,14.00
2007,07,16,03,23,14.00
2007,07,16,03,24,13.90
2007,07,16,03,25,13.90
2007,07,16,03,26,13.80
2007,07,16,03,27,13.80
2007,07,16,03,28,13.70
2007,07,16,03,29,13.70
2007,07,16,03,30,13.70
2007,07,16,03,31,13.60
2007,07,16,03,32,13.60
2007,07,16,03,33,13.60
2007,07,16,03,34,13.50
2007,07,16,03,35,13.50
2007,07,16,03,36,13.50
2007,07,16,03,37,13.40
2007,07,16,03,38,13.40
2007,07,16,03,39,13.30
2007,07,16,03,40,13.30
2007,07,16,03,41,13.30
2007,07,16,03,42,13.30
2007,07,16,03,43,13.20
2007,07,16,03,44,13.20
2007,07,16,03,45,13.10
2007,07,16,03,46,13.10
2007,07,16,03,47,13.10
2007,07,16,03,48,13.00
2007,07,16,03,49,13.00
2007,07,16,03,50,12.90
2007,07,16,03,51,12.90
2007,07,16,03,52,12.90
2007,07,16,03,53,12.90
2007,07,16,03,54,12.80
2007,07,16,03,55,12.80
2007,07,16,03,56,12.80
2007,07,16,03,57,12.80
2007,07,16,03,58,12.80
2007,07,16,03,59,12.80
2007,07,16,04,00,12.80
2007,07,16,04,01,12.70
2007,07,16,04,02,12.70
2007,07,16,04,03,12.70
2007,07,16,04,04,12.60
2007,07,16,04,05,12.60
2007,07,16,04,06,12.60
2007,07,16,04,07,12.50
2007,07,16,04,08,12.50
2007,07,16,04,09,12.50
2007,07,16,04,10,12.40
2007,07,16,04,11,12.40
2007,07,16,04,12,12.40
2007,07,16,04,13,12.30
2007,07,16,04,14,12.30
2007,07,16,04,15,12.30
2007,07,16,04,16,12.30
2007,07,16,04,17,12.30
2007,07,16,04,18,12.20
2007,07,16,04,19,12.20
2007,07,16,04,20,12.20
2007,07,16,04,21,12.20
2007,07,16,04,22,12.20
2007,07,16,04,23,12.10
2007,07,16,04,24,12.10
2007,07,16,04,25,12.10
2007,07,16,04,26,12.00
2007,07,16,04,27,12.00
2007,07,16,04,28,12.00
2007,07,16,04,29,12.00
2007,07,16,04,30,12.00
2007,07,16,04,31,12.00
2007,07,16,04,32,12.00
2007,07,16,04,33,12.00
2007,07,16,04,34,12.00
2007,07,16,04,35,12.00
2007,07,16,04,36,12.00
2007,07,16,04,37,12.00
2007,07,16,04,38,12.00
2007,07,16,04,39,12.00
2007,07,16,04,40,12.00
2007,07,16,04,41,12.00
2007,07,16,04,42,12.00
2007,07,16,04,43,11.90
2007,07,16,04,44,11.90
2007,07,16,04,45,11.90
2007,07,16,04,46,11.90
2007,07,16,04,47,11.90
2007,07,16,04,48,11.90
2007,07,16,04,49,11.90
2007,07,16,04,50,11.90
2007,07,16,04,51,11.90
2007,07,16,04,52,11.90
2007,07,16,04,53,11.90
2007,07,16,04,54,11.90
2007,07,16,04,55,11.90
2007,07,16,04,56,11.90
2007,07,16,04,57,11.90
2007,07,16,04,58,11.90
2007,07,16,04,59,11.90
2007,07,16,05,00,11.90
2007,07,16,05,01,11.90
2007,07,16,05,02,11.90
2007,07,16,05,03,11.90
2007,07,16,05,04,11.90
2007,07,16,05,05,11.90
2007,07,16,05,06,11.90
2007,07,16,05,07,11.90
2007,07,16,05,08,11.90
2007,07,16,05,09,11.90
2007,07,16,05,10,12.00
2007,07,16,05,11,12.00
2007,07,16,05,12,12.00
2007,07,16,05,13,12.00
2007,07,16,05,14,12.00
2007,07,16,05,15,12.00
2007,07,16,05,16,12.10
2007,07,16,05,17,12.10
2007,07,16,05,18,12.10
2007,07,16,05,19,12.10
2007,07,16,05,20,12.20
2007,07,16,05,21,12.20
2007,07,16,05,22,12.20
2007,07,16,05,23,12.20
2007,07,16,05,24,12.20
2007,07,16,05,25,12.30
2007,07,16,05,26,12.30
2007,07,16,05,27,12.30
2007,07,16,05,28,12.30
2007,07,16,05,29,12.30
2007,07,16,05,30,12.30
2007,07,16,05,31,12.30
2007,07,16,05,32,12.30
2007,07,16,05,33,12.30
2007,07,16,05,34,12.30
2007,07,16,05,35,12.30
2007,07,16,05,36,12.30
2007,07,16,05,37,12.30
2007,07,16,05,38,12.30
2007,07,16,05,39,12.30
2007,07,16,05,40,12.30
2007,07,16,05,41,12.30
2007,07,16,05,42,12.30
2007,07,16,05,43,12.30
2007,07,16,05,44,12.30
2007,07,16,05,45,12.30
2007,07,16,05,46,12.30
2007,07,16,05,47,12.30
2007,07,16,05,48,12.30
2007,07,16,05,49,12.30
2007,07,16,05,50,12.30
2007,07,16,05,51,12.30
2007,07,16,05,52,12.30
2007,07,16,05,53,12.30
2007,07,16,05,54,12.30
2007,07,16,05,55,12.30
2007,07,16,05,56,12.30
2007,07,16,05,57,12.30
2007,07,16,05,58,12.30
2007,07,16,05,59,12.30
2007,07,16,06,00,12.30
2007,07,16,06,01,12.30
2007,07,16,06,02,12.30
2007,07,16,06,03,12.30
2007,07,16,06,04,12.30
2007,07,16,06,05,12.30
2007,07,16,06,06,12.30
2007,07,16,06,07,12.30
2007,07,16,06,08,12.30
2007,07,16,06,09,12.30
2007,07,16,06,10,12.30
2007,07,16,06,11,12.30
2007,07,16,06,12,12.30
2007,07,16,06,13,12.30
2007,07,16,06,14,12.30
2007,07,16,06,15,12.30
2007,07,16,06,16,12.30
2007,07,16,06,17,12.30
2007,07,16,06,18,12.30
2007,07,16,06,19,12.30
2007,07,16,06,20,12.30
2007,07,16,06,21,12.30
2007,07,16,06,22,12.30
2007,07,16,06,23,12.30
2007,07,16,06,24,12.30
2007,07,16,06,25,12.30
2007,07,16,06,26,12.30
2007,07,16,06,27,12.30
2007,07,16,06,28,12.30
2007,07,16,06,29,12.40
2007,07,16,06,30,12.40
2007,07,16,06,31,12.40
2007,07,16,06,32,12.40
2007,07,16,06,33,12.40
2007,07,16,06,34,12.40
2007,07,16,06,35,12.40
2007,07,16,06,36,12.50
2007,07,16,06,37,12.50
2007,07,16,06,38,12.50
2007,07,16,06,39,12.50
2007,07,16,06,40,12.50
2007,07,16,06,41,12.50
2007,07,16,06,42,12.60
2007,07,16,06,43,12.60
2007,07,16,06,44,12.60
2007,07,16,06,45,12.60
2007,07,16,06,46,12.60
2007,07,16,06,47,12.60
2007,07,16,06,48,12.60
2007,07,16,06,49,12.70
2007,07,16,06,50,12.70
2007,07,16,06,51,12.70
2007,07,16,06,52,12.70
2007,07,16,06,53,12.70
2007,07,16,06,54,12.70
2007,07,16,06,55,12.80
2007,07,16,06,56,12.80
2007,07,16,06,57,12.80
2007,07,16,06,58,12.80
2007,07,16,06,59,12.80
2007,07,16,07,00,12.80
2007,07,16,07,01,12.90
2007,07,16,07,02,12.90
2007,07,16,07,03,12.90
2007,07,16,07,04,13.00
2007,07,16,07,05,13.00
2007,07,16,07,06,13.10
2007,07,16,07,07,13.10
2007,07,16,07,08,13.10
2007,07,16,07,09,13.20
2007,07,16,07,10,13.20
2007,07,16,07,11,13.20
2007,07,16,07,12,13.20
2007,07,16,07,13,13.30
2007,07,16,07,14,13.30
2007,07,16,07,15,13.30
2007,07,16,07,16,13.30
2007,07,16,07,17,13.30
2007,07,16,07,18,13.30
2007,07,16,07,19,13.30
2007,07,16,07,20,13.30
2007,07,16,07,21,13.30
2007,07,16,07,22,13.40
2007,07,16,07,23,13.40
2007,07,16,07,24,13.50
2007,07,16,07,25,13.50
2007,07,16,07,26,13.60
2007,07,16,07,27,13.60
2007,07,16,07,28,13.60
2007,07,16,07,29,13.70
2007,07,16,07,30,13.70
2007,07,16,07,31,13.70
2007,07,16,07,32,13.80
2007,07,16,07,33,13.80
2007,07,16,07,34,13.90
2007,07,16,07,35,13.90
2007,07,16,07,36,13.90
2007,07,16,07,37,13.90
2007,07,16,07,38,14.00
2007,07,16,07,39,14.00
2007,07,16,07,40,14.00
2007,07,16,07,41,14.10
2007,07,16,07,42,14.20
2007,07,16,07,43,14.20
2007,07,16,07,44,14.20
2007,07,16,07,45,14.20
2007,07,16,07,46,14.20
2007,07,16,07,47,14.30
2007,07,16,07,48,14.40
2007,07,16,07,49,14.50
2007,07,16,07,50,14.50
2007,07,16,07,51,14.50
2007,07,16,07,52,14.60
2007,07,16,07,53,14.60
2007,07,16,07,54,14.70
2007,07,16,07,55,14.80
2007,07,16,07,56,14.80
2007,07,16,07,57,14.90
2007,07,16,07,58,14.90
2007,07,16,07,59,15.00
2007,07,16,08,00,15.00
2007,07,16,08,01,15.00
2007,07,16,08,02,15.00
2007,07,16,08,03,15.00
2007,07,16,08,04,15.00
2007,07,16,08,05,15.00
2007,07,16,08,06,15.00
2007,07,16,08,07,15.00
2007,07,16,08,08,15.00
2007,07,16,08,09,15.10
2007,07,16,08,10,15.00
2007,07,16,08,11,15.00
2007,07,16,08,12,15.00
2007,07,16,08,13,15.00
2007,07,16,08,14,15.00
2007,07,16,08,15,15.10
2007,07,16,08,16,15.10
2007,07,16,08,17,15.10
2007,07,16,08,18,15.20
2007,07,16,08,19,15.20
2007,07,16,08,20,15.20
2007,07,16,08,21,15.20
2007,07,16,08,22,15.30
2007,07,16,08,23,15.30
2007,07,16,08,24,15.30
2007,07,16,08,25,15.30
2007,07,16,08,26,15.30
2007,07,16,08,27,15.40
2007,07,16,08,28,15.40
2007,07,16,08,29,15.50
2007,07,16,08,30,15.50
2007,07,16,08,31,15.60
2007,07,16,08,32,15.60
2007,07,16,08,33,15.60
2007,07,16,08,34,15.70
2007,07,16,08,35,15.70
2007,07,16,08,36,15.80
2007,07,16,08,37,15.80
2007,07,16,08,38,15.90
2007,07,16,08,39,16.10
2007,07,16,08,40,16.20
2007,07,16,08,41,16.30
2007,07,16,08,42,16.40
2007,07,16,08,43,16.40
2007,07,16,08,44,16.60
2007,07,16,08,45,16.70
2007,07,16,08,46,16.70
2007,07,16,08,47,16.70
2007,07,16,08,48,16.70
2007,07,16,08,49,16.70
2007,07,16,08,50,16.70
2007,07,16,08,51,16.70
2007,07,16,08,52,16.70
2007,07,16,08,53,16.70
2007,07,16,08,54,16.70
2007,07,16,08,55,16.70
2007,07,16,08,56,16.80
2007,07,16,08,57,16.90
2007,07,16,08,58,17.00
2007,07,16,08,59,17.00
2007,07,16,09,00,17.00
2007,07,16,09,01,17.10
2007,07,16,09,02,17.10
2007,07,16,09,03,17.20
2007,07,16,09,04,17.20
2007,07,16,09,05,17.30
2007,07,16,09,06,17.20
2007,07,16,09,07,17.20
2007,07,16,09,08,17.20
2007,07,16,09,09,17.20
2007,07,16,09,10,17.20
2007,07,16,09,11,17.10
2007,07,16,09,12,17.10
2007,07,16,09,13,17.00
2007,07,16,09,14,16.90
2007,07,16,09,15,16.90
2007,07,16,09,16,16.80
2007,07,16,09,17,16.70
2007,07,16,09,18,16.70
2007,07,16,09,19,16.70
2007,07,16,09,20,16.70
2007,07,16,09,21,16.80
2007,07,16,09,22,16.80
2007,07,16,09,23,16.90
2007,07,16,09,24,16.90
2007,07,16,09,25,17.00
2007,07,16,09,26,16.90
2007,07,16,09,27,16.90
2007,07,16,09,28,16.80
2007,07,16,09,29,16.80
2007,07,16,09,30,16.80
2007,07,16,09,31,16.80
2007,07,16,09,32,16.80
2007,07,16,09,33,16.80
2007,07,16,09,34,16.80
2007,07,16,09,35,16.90
2007,07,16,09,36,16.90
2007,07,16,09,37,16.90
2007,07,16,09,38,16.80
2007,07,16,09,39,16.80
2007,07,16,09,40,16.90
2007,07,16,09,41,16.90
2007,07,16,09,42,16.90
2007,07,16,09,43,16.90
2007,07,16,09,44,16.90
2007,07,16,09,45,17.00
2007,07,16,09,46,17.00
2007,07,16,09,47,17.10
2007,07,16,09,48,17.10
2007,07,16,09,49,17.10
2007,07,16,09,50,17.20
2007,07,16,09,51,17.30
2007,07,16,09,52,17.30
2007,07,16,09,53,17.30
2007,07,16,09,54,17.40
2007,07,16,09,55,17.50
2007,07,16,09,56,17.50
2007,07,16,09,57,17.60
2007,07,16,09,58,17.60
2007,07,16,09,59,17.70
2007,07,16,10,00,17.70
2007,07,16,10,01,17.70
2007,07,16,10,02,17.80
2007,07,16,10,03,17.80
2007,07,16,10,04,17.90
2007,07,16,10,05,17.90
2007,07,16,10,06,18.00
2007,07,16,10,07,18.10
2007,07,16,10,08,18.00
2007,07,16,10,09,17.90
2007,07,16,10,10,17.90
2007,07,16,10,11,18.00
2007,07,16,10,12,18.10
2007,07,16,10,13,18.10
2007,07,16,10,14,18.10
2007,07,16,10,15,18.10
2007,07,16,10,16,18.10
2007,07,16,10,17,18.10
2007,07,16,10,18,18.10
2007,07,16,10,19,18.20
2007,07,16,10,20,18.20
2007,07,16,10,21,18.20
2007,07,16,10,22,18.20
2007,07,16,10,23,18.30
2007,07,16,10,24,18.20
2007,07,16,10,25,18.30
2007,07,16,10,26,18.40
2007,07,16,10,27,18.40
2007,07,16,10,28,18.50
2007,07,16,10,29,18.60
2007,07,16,10,30,18.60
2007,07,16,10,31,18.60
2007,07,16,10,32,18.70
2007,07,16,10,33,18.70
2007,07,16,10,34,18.70
2007,07,16,10,35,18.80
2007,07,16,10,36,18.90
2007,07,16,10,37,19.00
2007,07,16,10,38,19.10
2007,07,16,10,39,19.10
2007,07,16,10,40,19.10
2007,07,16,10,41,19.10
2007,07,16,10,42,19.10
2007,07,16,10,43,19.10
2007,07,16,10,44,19.00
2007,07,16,10,45,18.90
2007,07,16,10,46,18.80
2007,07,16,10,47,18.70
2007,07,16,10,48,18.60
2007,07,16,10,49,18.50
2007,07,16,10,50,18.50
2007,07,16,10,51,18.50
2007,07,16,10,52,18.50
2007,07,16,10,53,18.60
2007,07,16,10,54,18.70
2007,07,16,10,55,18.80
2007,07,16,10,56,18.90
2007,07,16,10,57,18.90
2007,07,16,10,58,19.00
2007,07,16,10,59,19.10
2007,07,16,11,00,19.10
2007,07,16,11,01,19.00
2007,07,16,11,02,18.90
2007,07,16,11,03,18.90
2007,07,16,11,04,18.90
2007,07,16,11,05,18.90
2007,07,16,11,06,18.80
2007,07,16,11,07,18.80
2007,07,16,11,08,18.70
2007,07,16,11,09,18.70
2007,07,16,11,10,18.70
2007,07,16,11,11,18.70
2007,07,16,11,12,18.70
2007,07,16,11,13,18.70
2007,07,16,11,14,18.80
2007,07,16,11,15,18.80
2007,07,16,11,16,18.80
2007,07,16,11,17,18.80
2007,07,16,11,18,18.70
2007,07,16,11,19,18.70
2007,07,16,11,20,18.70
2007,07,16,11,21,18.70
2007,07,16,11,22,18.70
2007,07,16,11,23,18.70
2007,07,16,11,24,18.70
2007,07,16,11,25,18.70
2007,07,16,11,26,18.70
2007,07,16,11,27,18.70
2007,07,16,11,28,18.60
2007,07,16,11,29,18.60
2007,07,16,11,30,18.60
2007,07,16,11,31,18.60
2007,07,16,11,32,18.80
2007,07,16,11,33,18.90
2007,07,16,11,34,19.10
2007,07,16,11,35,19.10
2007,07,16,11,36,19.10
2007,07,16,11,37,19.10
2007,07,16,11,38,19.20
2007,07,16,11,39,19.30
2007,07,16,11,40,19.20
2007,07,16,11,41,19.20
2007,07,16,11,42,19.10
2007,07,16,11,43,19.10
2007,07,16,11,44,19.10
2007,07,16,11,45,19.10
2007,07,16,11,46,19.00
2007,07,16,11,47,19.10
2007,07,16,11,48,19.10
2007,07,16,11,49,19.20
2007,07,16,11,50,19.30
2007,07,16,11,51,19.40
2007,07,16,11,52,19.30
2007,07,16,11,53,19.40
2007,07,16,11,54,19.40
2007,07,16,11,55,19.40
2007,07,16,11,56,19.50
2007,07,16,11,57,19.50
2007,07,16,11,58,19.60
2007,07,16,11,59,19.60
2007,07,16,12,00,19.60
2007,07,16,12,01,19.60
2007,07,16,12,02,19.70
2007,07,16,12,03,19.70
2007,07,16,12,04,19.70
2007,07,16,12,05,19.80
2007,07,16,12,06,19.80
2007,07,16,12,07,19.80
2007,07,16,12,08,19.90
2007,07,16,12,09,19.90
2007,07,16,12,10,19.90
2007,07,16,12,11,19.80
2007,07,16,12,12,19.80
2007,07,16,12,13,19.80
2007,07,16,12,14,19.80
2007,07,16,12,15,19.80
2007,07,16,12,16,19.90
2007,07,16,12,17,19.80
2007,07,16,12,18,19.80
2007,07,16,12,19,19.80
2007,07,16,12,20,19.80
2007,07,16,12,21,19.70
2007,07,16,12,22,19.60
2007,07,16,12,23,19.50
2007,07,16,12,24,19.40
2007,07,16,12,25,19.40
2007,07,16,12,26,19.40
2007,07,16,12,27,19.40
2007,07,16,12,28,19.40
2007,07,16,12,29,19.40
2007,07,16,12,30,19.40
2007,07,16,12,31,19.40
2007,07,16,12,32,19.50
2007,07,16,12,33,19.50
2007,07,16,12,34,19.50
2007,07,16,12,35,19.50
2007,07,16,12,36,19.50
2007,07,16,12,37,19.60
2007,07,16,12,38,19.70
2007,07,16,12,39,19.80
2007,07,16,12,40,19.70
2007,07,16,12,41,19.70
2007,07,16,12,42,19.70
2007,07,16,12,43,19.80
2007,07,16,12,44,19.90
2007,07,16,12,45,19.90
2007,07,16,12,46,19.80
2007,07,16,12,47,19.70
2007,07,16,12,48,19.50
2007,07,16,12,49,19.40
2007,07,16,12,50,19.50
2007,07,16,12,51,19.40
2007,07,16,12,52,19.40
2007,07,16,12,53,19.30
2007,07,16,12,54,19.20
2007,07,16,12,55,19.10
2007,07,16,12,56,19.00
2007,07,16,12,57,19.00
2007,07,16,12,58,19.10
2007,07,16,12,59,19.10
2007,07,16,13,00,19.10
2007,07,16,13,01,19.10
2007,07,16,13,02,19.10
2007,07,16,13,03,19.10
2007,07,16,13,04,19.00
2007,07,16,13,05,19.00
2007,07,16,13,06,19.10
2007,07,16,13,07,19.10
2007,07,16,13,08,19.20
2007,07,16,13,09,19.30
2007,07,16,13,10,19.30
2007,07,16,13,11,19.30
2007,07,16,13,12,19.20
2007,07,16,13,13,19.20
2007,07,16,13,14,19.00
2007,07,16,13,15,18.70
2007,07,16,13,16,18.60
2007,07,16,13,17,18.60
2007,07,16,13,18,18.60
2007,07,16,13,19,18.60
2007,07,16,13,20,18.70
2007,07,16,13,21,18.90
2007,07,16,13,22,19.00
2007,07,16,13,23,19.10
2007,07,16,13,24,19.20
2007,07,16,13,25,19.30
2007,07,16,13,26,19.40
2007,07,16,13,27,19.50
2007,07,16,13,28,19.50
2007,07,16,13,29,19.50
2007,07,16,13,30,19.50
2007,07,16,13,31,19.40
2007,07,16,13,32,19.50
2007,07,16,13,33,19.50
2007,07,16,13,34,19.60
2007,07,16,13,35,19.60
2007,07,16,13,36,19.70
2007,07,16,13,37,19.80
2007,07,16,13,38,19.80
2007,07,16,13,39,19.80
2007,07,16,13,40,19.90
2007,07,16,13,41,19.90
2007,07,16,13,42,19.90
2007,07,16,13,43,19.90
2007,07,16,13,44,20.00
2007,07,16,13,45,20.10
2007,07,16,13,46,19.90
2007,07,16,13,47,19.90
2007,07,16,13,48,19.80
2007,07,16,13,49,19.70
2007,07,16,13,50,19.60
2007,07,16,13,51,19.50
2007,07,16,13,52,19.30
2007,07,16,13,53,19.20
2007,07,16,13,54,19.10
2007,07,16,13,55,19.10
2007,07,16,13,56,18.90
2007,07,16,13,57,18.80
2007,07,16,13,58,18.60
2007,07,16,13,59,18.50
2007,07,16,14,00,18.30
2007,07,16,14,01,18.30
2007,07,16,14,02,18.20
2007,07,16,14,03,18.10
2007,07,16,14,04,18.00
2007,07,16,14,05,17.90
2007,07,16,14,06,17.80
2007,07,16,14,07,17.70
2007,07,16,14,08,17.60
2007,07,16,14,09,17.50
2007,07,16,14,10,17.50
2007,07,16,14,11,17.40
2007,07,16,14,12,17.40
2007,07,16,14,13,17.40
2007,07,16,14,14,17.40
2007,07,16,14,15,17.40
2007,07,16,14,16,17.40
2007,07,16,14,17,17.40
2007,07,16,14,18,17.40
2007,07,16,14,19,17.50
2007,07,16,14,20,17.50
2007,07,16,14,21,17.70
2007,07,16,14,22,17.80
2007,07,16,14,23,17.90
2007,07,16,14,24,18.00
2007,07,16,14,25,18.10
2007,07,16,14,26,18.20
2007,07,16,14,27,18.30
2007,07,16,14,28,18.40
2007,07,16,14,29,18.50
2007,07,16,14,30,18.60
2007,07,16,14,31,18.70
2007,07,16,14,32,18.80
2007,07,16,14,33,19.00
2007,07,16,14,34,19.10
2007,07,16,14,35,19.20
2007,07,16,14,36,19.20
2007,07,16,14,37,19.20
2007,07,16,14,38,19.20
2007,07,16,14,39,19.20
2007,07,16,14,40,19.10
2007,07,16,14,41,19.10
2007,07,16,14,42,19.10
2007,07,16,14,43,19.10
2007,07,16,14,44,19.10
2007,07,16,14,45,19.10
2007,07,16,14,46,19.10
2007,07,16,14,47,19.10
2007,07,16,14,48,19.10
2007,07,16,14,49,19.10
2007,07,16,14,50,19.10
2007,07,16,14,51,19.00
2007,07,16,14,52,18.90
2007,07,16,14,53,18.90
2007,07,16,14,54,19.00
2007,07,16,14,55,19.10
2007,07,16,14,56,19.20
2007,07,16,14,57,19.30
2007,07,16,14,58,19.40
2007,07,16,14,59,19.40
2007,07,16,15,00,19.60
2007,07,16,15,01,19.60
2007,07,16,15,02,19.70
2007,07,16,15,03,19.90
2007,07,16,15,04,19.90
2007,07,16,15,05,19.90
2007,07,16,15,06,19.80
2007,07,16,15,07,19.70
2007,07,16,15,08,19.70
2007,07,16,15,09,19.70
2007,07,16,15,10,19.70
2007,07,16,15,11,19.70
2007,07,16,15,12,19.70
2007,07,16,15,13,19.70
2007,07,16,15,14,19.80
2007,07,16,15,15,19.80
2007,07,16,15,16,19.90
2007,07,16,15,17,20.10
2007,07,16,15,18,20.10
2007,07,16,15,19,20.00
2007,07,16,15,20,19.90
2007,07,16,15,21,19.90
2007,07,16,15,22,19.90
2007,07,16,15,23,19.80
2007,07,16,15,24,19.70
2007,07,16,15,25,19.70
2007,07,16,15,26,19.60
2007,07,16,15,27,19.60
2007,07,16,15,28,19.60
2007,07,16,15,29,19.70
2007,07,16,15,30,19.70
2007,07,16,15,31,19.70
2007,07,16,15,32,19.70
2007,07,16,15,33,19.70
2007,07,16,15,34,19.70
2007,07,16,15,35,19.70
2007,07,16,15,36,19.80
2007,07,16,15,37,19.90
2007,07,16,15,38,19.90
2007,07,16,15,39,19.90
2007,07,16,15,40,19.90
2007,07,16,15,41,19.80
2007,07,16,15,42,19.80
2007,07,16,15,43,19.80
2007,07,16,15,44,19.80
2007,07,16,15,45,19.90
2007,07,16,15,46,20.00
2007,07,16,15,47,20.20
2007,07,16,15,48,20.20
2007,07,16,15,49,20.30
2007,07,16,15,50,20.40
2007,07,16,15,51,20.50
2007,07,16,15,52,20.50
2007,07,16,15,53,20.60
2007,07,16,15,54,20.70
2007,07,16,15,55,20.80
2007,07,16,15,56,20.80
2007,07,16,15,57,20.80
2007,07,16,15,58,20.80
2007,07,16,15,59,20.90
2007,07,16,16,00,21.00
2007,07,16,16,01,21.00
2007,07,16,16,02,21.20
2007,07,16,16,03,21.20
2007,07,16,16,04,21.30
2007,07,16,16,05,21.30
2007,07,16,16,06,21.20
2007,07,16,16,07,21.20
2007,07,16,16,08,21.20
2007,07,16,16,09,21.20
2007,07,16,16,10,21.20
2007,07,16,16,11,21.30
2007,07,16,16,12,21.30
2007,07,16,16,13,21.30
2007,07,16,16,14,21.30
2007,07,16,16,15,21.40
2007,07,16,16,16,21.50
2007,07,16,16,17,21.60
2007,07,16,16,18,21.60
2007,07,16,16,19,21.60
2007,07,16,16,20,21.70
2007,07,16,16,21,21.70
2007,07,16,16,22,21.90
2007,07,16,16,23,21.90
2007,07,16,16,24,22.00
2007,07,16,16,25,22.00
2007,07,16,16,26,21.90
2007,07,16,16,27,21.90
2007,07,16,16,28,21.90
2007,07,16,16,29,22.00
2007,07,16,16,30,22.00
2007,07,16,16,31,22.00
2007,07,16,16,32,22.00
2007,07,16,16,33,22.00
2007,07,16,16,34,22.00
2007,07,16,16,35,22.00
2007,07,16,16,36,21.90
2007,07,16,16,37,21.90
2007,07,16,16,38,22.00
2007,07,16,16,39,22.10
2007,07,16,16,40,22.10
2007,07,16,16,41,22.20
2007,07,16,16,42,22.30
2007,07,16,16,43,22.40
2007,07,16,16,44,22.40
2007,07,16,16,45,22.40
2007,07,16,16,46,22.30
2007,07,16,16,47,22.20
2007,07,16,16,48,22.20
2007,07,16,16,49,22.20
2007,07,16,16,50,22.30
2007,07,16,16,51,22.40
2007,07,16,16,52,22.40
2007,07,16,16,53,22.40
2007,07,16,16,54,22.30
2007,07,16,16,55,22.30
2007,07,16,16,56,22.30
2007,07,16,16,57,22.30
2007,07,16,16,58,22.30
2007,07,16,16,59,22.30
2007,07,16,17,00,22.40
2007,07,16,17,01,22.40
2007,07,16,17,02,22.40
2007,07,16,17,03,22.40
2007,07,16,17,04,22.40
2007,07,16,17,05,22.40
2007,07,16,17,06,22.40
2007,07,16,17,07,22.30
2007,07,16,17,08,22.30
2007,07,16,17,09,22.30
2007,07,16,17,10,22.40
2007,07,16,17,11,22.40
2007,07,16,17,12,22.40
2007,07,16,17,13,22.50
2007,07,16,17,14,22.50
2007,07,16,17,15,22.50
2007,07,16,17,16,22.50
2007,07,16,17,17,22.40
2007,07,16,17,18,22.40
2007,07,16,17,19,22.30